When you browse on this site, cookies collect data to enhance your experience and personalize the content and advertising you see.
Visit our Privacy Policy to learn more. By continuing to use the site, you agree to this use of cookies and data.
  • In Hungary
  • List of Countries
  • For 7 days
  • Water Temperature
  • Satellite Maps
  • Weather Map
  • News
  • Weather Widgets
  • user-avatar
    Login

    Hourly Weather Lorca

    Today, 18 January, Friday

    Time Temperature Precipitation Wind Pressure Humidity
    00:00 +7°C° 0 mm 1 mps 731 mmHg 77%
    01:00 +7°C° 0 mm 1 mps 731 mmHg 78%
    02:00 +6°C° 0 mm 1 mps 731 mmHg 79%
    03:00 +6°C° 0 mm 1 mps 731 mmHg 80%
    04:00 +6°C° 0 mm 1 mps 731 mmHg 81%
    05:00 +5°C° 0 mm 1 mps 731 mmHg 81%
    06:00 +5°C° 0 mm 1 mps 731 mmHg 81%
    07:00 +7°C° 0 mm 1 mps 732 mmHg 73%
    08:00 +8°C° 0 mm 1 mps 732 mmHg 66%
    09:00 +10°C° 0 mm 1 mps 732 mmHg 58%
    10:00 +11°C° 0 mm 1 mps 732 mmHg 55%
    11:00 +12°C° 0 mm 1 mps 732 mmHg 53%
    12:00 +13°C° 0 mm 1 mps 732 mmHg 50%
    13:00 +13°C° 0 mm 1 mps 732 mmHg 51%
    14:00 +13°C° 0 mm 2 mps 732 mmHg 52%
    15:00 +13°C° 0 mm 2 mps 731 mmHg 52%
    16:00 +12°C° 0 mm 2 mps 731 mmHg 59%
    17:00 +12°C° 0 mm 1 mps 731 mmHg 65%
    18:00 +11°C° 0 mm 1 mps 731 mmHg 72%
    19:00 +10°C° 0 mm 1 mps 732 mmHg 76%
    20:00 +8°C° 0 mm 0 mps 732 mmHg 80%
    21:00 +8°C° 0 mm 0 mps 732 mmHg 84%
    22:00 +7°C° 0 mm 0 mps 732 mmHg 83%
    23:00 +7°C° 0 mm 0 mps 732 mmHg 82%

    Tomorrow, 19 January, Saturday

    Time Temperature Precipitation Wind Pressure Humidity
    00:00 +7°C° 0 mm 1 mps 732 mmHg 81%
    01:00 +7°C° 0 mm 1 mps 732 mmHg 79%
    02:00 +7°C° 0 mm 1 mps 731 mmHg 76%
    03:00 +6°C° 0 mm 1 mps 731 mmHg 74%
    04:00 +6°C° 0 mm 1 mps 731 mmHg 74%
    05:00 +6°C° 0 mm 1 mps 731 mmHg 73%
    06:00 +6°C° 0 mm 1 mps 731 mmHg 73%
    07:00 +7°C° 0 mm 1 mps 731 mmHg 67%
    08:00 +8°C° 0 mm 1 mps 732 mmHg 62%
    09:00 +10°C° 0 mm 1 mps 732 mmHg 56%
    10:00 +11°C° 0 mm 1 mps 732 mmHg 52%
    11:00 +12°C° 0 mm 1 mps 732 mmHg 48%
    12:00 +13°C° 0 mm 1 mps 731 mmHg 44%
    13:00 +14°C° 0 mm 2 mps 731 mmHg 44%
    14:00 +14°C° 0 mm 2 mps 730 mmHg 44%
    15:00 +14°C° 0 mm 3 mps 730 mmHg 43%
    16:00 +14°C° 0 mm 2 mps 729 mmHg 49%
    17:00 +13°C° 0 mm 2 mps 729 mmHg 55%
    18:00 +10°C° 0 mm 2 mps 729 mmHg 61%
    19:00 +10°C° 0 mm 2 mps 729 mmHg 64%
    20:00 +10°C° 0 mm 2 mps 729 mmHg 67%
    21:00 +10°C° 0 mm 2 mps 728 mmHg 69%
    22:00 +10°C° 0.4 mm 2 mps 728 mmHg 72%
    23:00 +10°C° 0.4 mm 2 mps 727 mmHg 75%

    Day after tomorrow, 20 January, Sunday

    Time Temperature Precipitation Wind Pressure Humidity
    00:00 +10°C° 0.4 mm 2 mps 727 mmHg 77%
    01:00 +9°C° 0 mm 2 mps 727 mmHg 78%
    02:00 +9°C° 0 mm 2 mps 726 mmHg 79%
    03:00 +9°C° 0 mm 2 mps 726 mmHg 80%
    04:00 +8°C° 0 mm 2 mps 726 mmHg 81%
    05:00 +8°C° 0 mm 2 mps 725 mmHg 82%
    06:00 +8°C° 0 mm 2 mps 725 mmHg 83%
    07:00 +9°C° 0.1 mm 2 mps 725 mmHg 79%
    08:00 +10°C° 0.1 mm 2 mps 726 mmHg 75%
    09:00 +12°C° 0.1 mm 2 mps 726 mmHg 72%
    10:00 +13°C° 0.1 mm 2 mps 727 mmHg 67%
    11:00 +13°C° 0.1 mm 3 mps 727 mmHg 62%
    12:00 +14°C° 0.1 mm 3 mps 727 mmHg 57%
    13:00 +14°C° 0.3 mm 4 mps 727 mmHg 56%
    14:00 +14°C° 0.3 mm 5 mps 727 mmHg 56%
    15:00 +13°C° 0.3 mm 6 mps 727 mmHg 55%
    16:00 +13°C° 0 mm 6 mps 728 mmHg 53%
    17:00 +12°C° 0 mm 5 mps 728 mmHg 52%
    18:00 +10°C° 0 mm 5 mps 729 mmHg 51%
    19:00 +9°C° 0 mm 5 mps 730 mmHg 54%
    20:00 +8°C° 0 mm 5 mps 730 mmHg 56%
    21:00 +8°C° 0 mm 5 mps 731 mmHg 59%
    22:00 +7°C° 0 mm 5 mps 731 mmHg 60%
    23:00 +7°C° 0 mm 5 mps 732 mmHg 61%

    21 January, Monday

    Time Temperature Precipitation Wind Pressure Humidity
    00:00 +6°C° 0 mm 4 mps 732 mmHg 63%
    01:00 +6°C° 0 mm 4 mps 732 mmHg 63%
    02:00 +6°C° 0 mm 4 mps 732 mmHg 64%
    03:00 +6°C° 0 mm 4 mps 732 mmHg 64%
    04:00 +5°C° 0 mm 4 mps 732 mmHg 65%
    05:00 +5°C° 0 mm 4 mps 732 mmHg 66%
    06:00 +5°C° 0 mm 4 mps 732 mmHg 67%
    07:00 +6°C° 0 mm 5 mps 733 mmHg 64%
    08:00 +7°C° 0 mm 5 mps 733 mmHg 60%
    09:00 +8°C° 0 mm 5 mps 734 mmHg 57%
    10:00 +9°C° 0 mm 6 mps 734 mmHg 52%
    11:00 +10°C° 0 mm 7 mps 734 mmHg 46%
    12:00 +11°C° 0 mm 8 mps 734 mmHg 41%
    13:00 +11°C° 0 mm 8 mps 734 mmHg 40%
    14:00 +12°C° 0 mm 8 mps 734 mmHg 39%
    15:00 +12°C° 0 mm 8 mps 733 mmHg 38%
    16:00 +11°C° 0 mm 7 mps 734 mmHg 41%
    17:00 +9°C° 0 mm 7 mps 734 mmHg 44%
    18:00 +8°C° 0 mm 6 mps 734 mmHg 48%
    19:00 +7°C° 0 mm 5 mps 734 mmHg 51%
    20:00 +7°C° 0 mm 5 mps 735 mmHg 54%
    21:00 +6°C° 0 mm 4 mps 735 mmHg 57%
    22:00 +6°C° 0 mm 4 mps 735 mmHg 59%
    23:00 +5°C° 0 mm 4 mps 735 mmHg 61%

    22 January, Tuesday

    Time Temperature Precipitation Wind Pressure Humidity
    00:00 +5°C° 0 mm 4 mps 735 mmHg 63%
    01:00 +4°C° 0 mm 4 mps 735 mmHg 64%
    02:00 +4°C° 0 mm 4 mps 735 mmHg 65%
    03:00 +3°C° 0 mm 4 mps 734 mmHg 66%
    04:00 +3°C° 0 mm 4 mps 734 mmHg 66%
    05:00 +3°C° 0 mm 4 mps 734 mmHg 66%
    06:00 +1°C° 0 mm 4 mps 734 mmHg 66%
    07:00 +4°C° 0 mm 4 mps 734 mmHg 60%
    08:00 +5°C° 0 mm 4 mps 734 mmHg 55%
    09:00 +6°C° 0 mm 4 mps 734 mmHg 49%
    10:00 +8°C° 0 mm 4 mps 734 mmHg 44%
    11:00 +9°C° 0 mm 5 mps 733 mmHg 38%
    12:00 +12°C° 0 mm 5 mps 733 mmHg 32%
    13:00 +12°C° 0 mm 5 mps 732 mmHg 31%
    14:00 +13°C° 0 mm 5 mps 731 mmHg 31%
    15:00 +13°C° 0 mm 6 mps 730 mmHg 31%
    16:00 +12°C° 0 mm 5 mps 730 mmHg 36%
    17:00 +10°C° 0 mm 5 mps 729 mmHg 41%
    18:00 +8°C° 0 mm 4 mps 729 mmHg 46%
    19:00 +8°C° 0 mm 4 mps 729 mmHg 50%
    20:00 +7°C° 0 mm 4 mps 729 mmHg 55%
    21:00 +7°C° 0 mm 4 mps 729 mmHg 59%
    22:00 +7°C° 0 mm 4 mps 729 mmHg 61%
    23:00 +7°C° 0 mm 5 mps 729 mmHg 63%

    23 January, Wednesday

    Time Temperature Precipitation Wind Pressure Humidity
    00:00 +6°C° 0 mm 5 mps 729 mmHg 66%
    01:00 +6°C° 0 mm 5 mps 728 mmHg 67%
    02:00 +6°C° 0 mm 5 mps 728 mmHg 68%
    03:00 +6°C° 0 mm 5 mps 728 mmHg 69%
    04:00 +5°C° 0 mm 5 mps 728 mmHg 69%
    05:00 +5°C° 0 mm 5 mps 727 mmHg 69%
    06:00 +4°C° 0 mm 6 mps 727 mmHg 69%
    07:00 +5°C° 0 mm 7 mps 727 mmHg 64%
    08:00 +6°C° 0 mm 9 mps 727 mmHg 60%
    09:00 +7°C° 0 mm 10 mps 726 mmHg 55%
    10:00 +8°C° 0 mm 11 mps 726 mmHg 52%
    11:00 +10°C° 0 mm 12 mps 726 mmHg 48%
    12:00 +12°C° 0 mm 13 mps 726 mmHg 44%
    13:00 +13°C° 0 mm 13 mps 725 mmHg 44%
    14:00 +13°C° 0 mm 13 mps 724 mmHg 44%
    15:00 +13°C° 0 mm 13 mps 723 mmHg 44%
    16:00 +12°C° 0 mm 11 mps 723 mmHg 50%
    17:00 +11°C° 0 mm 9 mps 723 mmHg 55%
    18:00 +10°C° 0 mm 7 mps 723 mmHg 61%
    19:00 +10°C° 0 mm 7 mps 722 mmHg 62%
    20:00 +10°C° 0 mm 7 mps 722 mmHg 64%
    21:00 +9°C° 0 mm 7 mps 722 mmHg 66%
    22:00 +9°C° 0 mm 6 mps 722 mmHg 67%
    23:00 +9°C° 0 mm 6 mps 722 mmHg 68%
    Show more